STARLINK-34785, 65354

Orbit data source: Space-Track

STARLINK-34785, 65354 is a payload satellite owned by SpaceX/Seattle (US) in LEO that was launched on Thu, 28 Aug 2025 UTC via an FALCON 9 launch vehicle from the Air Force Eastern Test Range (AFETR). Payload-class satellites include a variety of spacecraft equipped with specific instruments for various scientific and technological missions. These include communications satellites like Starlink; space stations such as the ISS; scientific satellites like the Hubble; Earth observation satellites from companies like Planet Labs, Umbra, and HawkEye 360; GPS; miniature CubeSats for education and research; and military/defense satellites.

Loading next visibility...
Identifier
65354, 2025-190D
Orbit
LEO
Country
Flag of USUS
Related business
Manufacturer
SpaceX/Seattle
Mission
Operational Commercial Communications
Bus & Motor
STARLINK V2MO, Unknown motor
Mass
575 kg wet, ~530 kg dry
Launch date (UTC)
2025-08-28 (10 months ago)
Launch vehicle
FALCON 9
Launch site
Air Force Eastern Test Range (AFETR)
Object type
Payload
Rocket body
Debris
Shape & HBR
Box + 2 Pan, 17.7 m
Radar Cross Section
36.964 m², Large (>1 m²)

Expand to show TLE details & history
Last TLE update: 1 day ago

TLE from 1 day ago
0 STARLINK-34785
1 65354U 25190D   26170.95402344  .00032733  00000-0  97517-3 0  9997
2 65354  53.1587  52.3773 0001095  76.8273 283.2851 15.34416982 44953
Epoch: 2026-06-19T22:53Z
TLE epoch observation values (Epoch: 2026-06-19T22:53:47.625Z)
Latitude
-0.00006°
Longitude
160.75322°
Altitude
463.382 km
Speed
7.636 km/s
True Right ascension
03h 29m 30s
True Declination
0° 00' 00"
Sunlit
Object was in daylight at epoch
Visualization orbit readout
Latitude
Unknown
Longitude
Unknown
Altitude
Unknown
Speed
Unknown
Apparent Right ascension
Unknown
Apparent Declination
Unknown
Sunlit
N/A
Visualization observer readout
Local Sidereal Time
10:18:52
Azimuth
Unknown
Elevation
Unknown
Doppler factor
Unknown
Orbital elements
Apogee altitude
463.659 km
Perigee altitude
462.161 km
Semi-major axis
6,841.047 km
Eccentricity
0.00011
Inclination
53.1587°
RAAN
52.3773°
Arg. of periapsis
76.8273°
True anomaly
283.27289°
Mean anomaly
283.2851°
Eccentric anomaly
283.27899°
Mean motion
3.83583 °/min
Orbital period
93.85 mins
BSTAR
0.00097517
Loading maneuver chart data...
Computing Atmospheric mass density...
Loading historical data...
Loading historical data...
Loading historical data...
Loading historical data...
Loading historical data...
Loading historical data...
Loading historical data...

Documentation

Showing up to 5 results
|